Station Historical Data
Daily Summary for November 16, 2017 Units:  English    Metric   Both
« Previous Day
Next Day »
Daily Weekly Monthly Yearly Custom
  High: Low: Average:
Temperature: 64.4 °F 45.6 °F 53.9 °F
Dew Point: 50.2 °F 37.0 °F 43.2 °F
Humidity: 89% 40% 69%
Wind Speed: 5.8mph 0.0mph 1.5mph
Wind Gust: 5.8mph - -
Wind- - SW
Pressure: 30.18 in 30.11 in -
Precipitation: 0.00 in    
Historical Graphs
 
 
Tabular Data for November 16, 2017
Time Temperature Dew Point Pressure Wind Wind Speed Wind Gust Humidity Rainfall Rate (Hourly) solar Conditions
00:02 49.9 °F 44.0 °F 30.14 in Calm     80% 0.00 in WeatherDisplay:10.37 W/m2 SCT
00:07 49.8 °F 43.9 °F 30.15 in Calm     80% 0.00 in WeatherDisplay:10.37 W/m2 SCT
00:12 49.6 °F 43.7 °F 30.15 in Calm     80% 0.00 in WeatherDisplay:10.37 W/m2 SCT
00:17 49.5 °F 43.6 °F 30.15 in Calm     80% 0.00 in WeatherDisplay:10.37 W/m2 SCT
00:22 49.5 °F 43.6 °F 30.15 in Calm     80% 0.00 in WeatherDisplay:10.37 W/m2 SCT
00:27 49.4 °F 43.2 °F 30.15 in Calm     79% 0.00 in WeatherDisplay:10.37 W/m2 SCT
00:32 49.4 °F 43.2 °F 30.15 in Calm     79% 0.00 in WeatherDisplay:10.37 W/m2 SCT
00:38 49.2 °F 43.3 °F 30.15 in Calm     80% 0.00 in WeatherDisplay:10.37 W/m2 SCT
00:43 49.1 °F 43.2 °F 30.15 in Calm     80% 0.00 in WeatherDisplay:10.37 W/m2 SCT
00:48 48.9 °F 43.0 °F 30.14 in Calm     80% 0.00 in WeatherDisplay:10.37 W/m2 SCT
00:53 48.8 °F 42.9 °F 30.14 in Calm     80% 0.00 in WeatherDisplay:10.37 W/m2 SCT
00:58 48.7 °F 42.8 °F 30.15 in Calm     80% 0.00 in WeatherDisplay:10.37 W/m2 SCT
01:03 48.5 °F 42.9 °F 30.14 in Calm     81% 0.00 in WeatherDisplay:10.37 W/m2 SCT
01:08 48.3 °F 42.7 °F 30.14 in Calm     81% 0.00 in WeatherDisplay:10.37 W/m2 SCT
01:13 48.2 °F 42.6 °F 30.14 in Calm     81% 0.00 in WeatherDisplay:10.37 W/m2 SCT
01:18 48.1 °F 42.5 °F 30.14 in Calm     81% 0.00 in WeatherDisplay:10.37 W/m2 SCT
01:23 48.1 °F 42.9 °F 30.14 in Calm     82% 0.00 in WeatherDisplay:10.37 W/m2 SCT
01:28 48.0 °F 42.8 °F 30.14 in Calm     82% 0.00 in WeatherDisplay:10.37 W/m2 SCT
01:33 48.0 °F 43.1 °F 30.14 in Calm     83% 0.00 in WeatherDisplay:10.37 W/m2 SCT
01:38 48.1 °F 43.5 °F 30.14 in Calm     84% 0.00 in WeatherDisplay:10.37 W/m2 SCT
01:43 48.2 °F 43.6 °F 30.14 in Calm     84% 0.00 in WeatherDisplay:10.37 W/m2 SCT
01:49 48.2 °F 43.6 °F 30.14 in Calm     84% 0.00 in WeatherDisplay:10.37 W/m2 SCT
01:54 48.3 °F 43.7 °F 30.14 in Calm     84% 0.00 in WeatherDisplay:10.37 W/m2 SCT
01:59 48.3 °F 43.7 °F 30.14 in Calm     84% 0.00 in WeatherDisplay:10.37 W/m2 SCT
02:04 48.5 °F 43.9 °F 30.14 in Calm     84% 0.00 in WeatherDisplay:10.37 W/m2 OVC
02:09 48.5 °F 44.2 °F 30.13 in Calm     85% 0.00 in WeatherDisplay:10.37 W/m2 OVC
02:14 48.6 °F 44.0 °F 30.13 in Calm     84% 0.00 in WeatherDisplay:10.37 W/m2 OVC
02:19 48.7 °F 44.1 °F 30.13 in Calm     84% 0.00 in WeatherDisplay:10.37 W/m2 OVC
02:24 48.7 °F 44.1 °F 30.13 in Calm     84% 0.00 in WeatherDisplay:10.37 W/m2 OVC
02:29 48.8 °F 44.2 °F 30.13 in Calm     84% 0.00 in WeatherDisplay:10.37 W/m2 OVC
02:34 48.8 °F 44.2 °F 30.13 in Calm     84% 0.00 in WeatherDisplay:10.37 W/m2 OVC
02:39 48.9 °F 44.3 °F 30.13 in Calm     84% 0.00 in WeatherDisplay:10.37 W/m2 OVC
02:49 49.0 °F 44.4 °F 30.13 in Calm     84% 0.00 in WeatherDisplay:10.37 W/m2 OVC
02:54 49.1 °F 44.5 °F 30.13 in Calm     84% 0.00 in WeatherDisplay:10.37 W/m2 OVC
03:00 49.1 °F 44.8 °F 30.13 in Calm     85% 0.00 in WeatherDisplay:10.37 W/m2 OVC
03:05 49.2 °F 44.9 °F 30.13 in Calm     85% 0.00 in WeatherDisplay:10.37 W/m2 BKN
03:10 49.3 °F 45.0 °F 30.13 in Calm     85% 0.00 in WeatherDisplay:10.37 W/m2 BKN
03:15 49.3 °F 45.0 °F 30.13 in Calm     85% 0.00 in WeatherDisplay:10.37 W/m2 BKN
03:20 49.4 °F 45.1 °F 30.13 in Calm     85% 0.00 in WeatherDisplay:10.37 W/m2 BKN
03:30 49.5 °F 45.2 °F 30.13 in Calm     85% 0.00 in WeatherDisplay:10.37 W/m2 BKN
03:35 49.6 °F 45.3 °F 30.13 in Calm     85% 0.00 in WeatherDisplay:10.37 W/m2 BKN
03:40 49.7 °F 45.4 °F 30.13 in Calm     85% 0.00 in WeatherDisplay:10.37 W/m2 BKN
03:45 49.7 °F 45.7 °F 30.13 in Calm     86% 0.00 in WeatherDisplay:10.37 W/m2 BKN
03:50 49.8 °F 45.8 °F 30.13 in Calm     86% 0.00 in WeatherDisplay:10.37 W/m2 BKN
03:55 49.9 °F 45.9 °F 30.13 in Calm     86% 0.00 in WeatherDisplay:10.37 W/m2 BKN
04:00 50.0 °F 46.0 °F 30.13 in Calm     86% 0.00 in WeatherDisplay:10.37 W/m2 BKN
04:05 50.1 °F 46.1 °F 30.14 in Calm     86% 0.00 in WeatherDisplay:10.37 W/m2 OVC
04:11 50.2 °F 45.9 °F 30.14 in Calm     85% 0.00 in WeatherDisplay:10.37 W/m2 OVC
04:16 50.4 °F 46.1 °F 30.14 in Calm     85% 0.00 in WeatherDisplay:10.37 W/m2 OVC
04:21 50.5 °F 45.8 °F 30.13 in NNE 1.2 mph   84% 0.00 in WeatherDisplay:10.37 W/m2 OVC
04:26 50.6 °F 45.9 °F 30.13 in NNE 1.2 mph   84% 0.00 in WeatherDisplay:10.37 W/m2 OVC
04:31 50.7 °F 45.7 °F 30.13 in NNE 1.2 mph   83% 0.00 in WeatherDisplay:10.37 W/m2 OVC
04:36 50.8 °F 46.1 °F 30.13 in Calm     84% 0.00 in WeatherDisplay:10.37 W/m2 OVC
04:41 50.8 °F 45.8 °F 30.13 in Calm     83% 0.00 in WeatherDisplay:10.37 W/m2 OVC
04:46 50.8 °F 45.8 °F 30.14 in Calm     83% 0.00 in WeatherDisplay:10.37 W/m2 OVC
04:51 50.8 °F 45.8 °F 30.14 in Calm     83% 0.00 in WeatherDisplay:10.37 W/m2 OVC
04:56 50.7 °F 45.7 °F 30.14 in Calm     83% 0.00 in WeatherDisplay:10.37 W/m2 OVC
05:01 50.7 °F 45.7 °F 30.14 in Calm     83% 0.00 in WeatherDisplay:10.37 W/m2 OVC
05:06 50.6 °F 45.9 °F 30.14 in Calm     84% 0.00 in WeatherDisplay:10.37 W/m2 OVC
05:11 50.6 °F 45.6 °F 30.14 in Calm     83% 0.00 in WeatherDisplay:10.37 W/m2 OVC
05:16 50.7 °F 46.0 °F 30.14 in Calm     84% 0.00 in WeatherDisplay:10.37 W/m2 OVC
05:22 50.7 °F 46.0 °F 30.14 in Calm     84% 0.00 in WeatherDisplay:10.37 W/m2 OVC
05:27 50.7 °F 45.7 °F 30.14 in Calm     83% 0.00 in WeatherDisplay:10.37 W/m2 OVC
05:32 50.8 °F 45.8 °F 30.14 in Calm     83% 0.00 in WeatherDisplay:10.37 W/m2 OVC
05:37 50.8 °F 45.8 °F 30.14 in Calm     83% 0.00 in WeatherDisplay:10.37 W/m2 OVC
05:42 50.8 °F 45.8 °F 30.13 in Calm     83% 0.00 in WeatherDisplay:10.37 W/m2 OVC
05:47 50.8 °F 45.8 °F 30.13 in Calm     83% 0.00 in WeatherDisplay:10.37 W/m2 OVC
05:52 50.8 °F 46.1 °F 30.13 in Calm     84% 0.00 in WeatherDisplay:10.37 W/m2 OVC
05:57 50.8 °F 46.1 °F 30.14 in Calm     84% 0.00 in WeatherDisplay:10.37 W/m2 OVC
06:02 50.8 °F 46.1 °F 30.14 in Calm     84% 0.00 in WeatherDisplay:10.37 W/m2 OVC
06:07 50.8 °F 46.5 °F 30.14 in Calm     85% 0.00 in WeatherDisplay:10.37 W/m2 OVC
06:12 50.8 °F 46.1 °F 30.14 in Calm     84% 0.00 in WeatherDisplay:10.37 W/m2 OVC
06:17 50.8 °F 46.1 °F 30.14 in Calm     84% 0.00 in WeatherDisplay:10.37 W/m2 OVC
06:23 50.9 °F 46.2 °F 30.14 in Calm     84% 0.00 in WeatherDisplay:10.37 W/m2 OVC
06:28 50.9 °F 46.2 °F 30.14 in Calm     84% 0.00 in WeatherDisplay:10.37 W/m2 OVC
06:33 50.9 °F 46.2 °F 30.14 in Calm     84% 0.00 in WeatherDisplay:10.37 W/m2 OVC
06:38 50.9 °F 46.2 °F 30.15 in Calm     84% 0.00 in WeatherDisplay:10.37 W/m2 OVC
06:43 51.0 °F 46.6 °F 30.15 in Calm     85% 0.00 in WeatherDisplay:10.37 W/m2 OVC
06:48 51.0 °F 46.3 °F 30.15 in Calm     84% 0.00 in WeatherDisplay:10.37 W/m2 OVC
06:53 51.0 °F 46.6 °F 30.15 in Calm     85% 0.00 in WeatherDisplay:10.37 W/m2 OVC
06:58 51.1 °F 46.7 °F 30.15 in North 1.2 mph   85% 0.00 in WeatherDisplay:10.37 W/m2 OVC
07:03 51.1 °F 46.4 °F 30.15 in North 1.2 mph   84% 0.00 in WeatherDisplay:10.37 W/m2 OVC
07:08 51.0 °F 46.3 °F 30.14 in North 1.2 mph   84% 0.00 in WeatherDisplay:10.37 W/m2 OVC
07:13 50.7 °F 46.0 °F 30.15 in Calm     84% 0.00 in WeatherDisplay:10.37 W/m2 OVC
07:18 50.5 °F 45.8 °F 30.15 in Calm     84% 0.00 in WeatherDisplay:10.37 W/m2 OVC
07:23 50.2 °F 45.9 °F 30.15 in Calm     85% 0.00 in WeatherDisplay:10.37 W/m2 OVC
07:28 50.0 °F 45.7 °F 30.15 in Calm     85% 0.00 in WeatherDisplay:10.37 W/m2 OVC
07:33 49.7 °F 45.7 °F 30.16 in Calm     86% 0.00 in WeatherDisplay:10.37 W/m2 SCT
07:39 49.6 °F 45.6 °F 30.16 in Calm     86% 0.00 in WeatherDisplay:10.37 W/m2 SCT
07:44 49.4 °F 45.7 °F 30.16 in Calm     87% 0.00 in WeatherDisplay:10.37 W/m2 SCT
07:49 49.3 °F 45.6 °F 30.16 in Calm     87% 0.00 in WeatherDisplay:10.37 W/m2 SCT
07:54 49.3 °F 45.6 °F 30.16 in Calm     87% 0.00 in WeatherDisplay:10.37 W/m2 SCT
07:59 49.3 °F 45.9 °F 30.17 in Calm     88% 0.00 in WeatherDisplay:10.37 W/m2 SCT
08:04 49.3 °F 45.9 °F 30.17 in Calm     88% 0.00 in WeatherDisplay:10.37 W/m2 SCT
08:09 49.5 °F 46.4 °F 30.17 in Calm     89% 0.00 in WeatherDisplay:10.37 W/m2 SCT
08:14 49.6 °F 46.5 °F 30.17 in Calm     89% 0.00 in WeatherDisplay:10.37 W/m2 SCT
08:19 49.9 °F 46.8 °F 30.17 in Calm     89% 0.00 in WeatherDisplay:10.37 W/m2 SCT
08:24 50.3 °F 46.9 °F 30.17 in NNW 1.2 mph   88% 0.00 in WeatherDisplay:10.37 W/m2 SCT
08:29 50.9 °F 47.2 °F 30.17 in WNW 1.2 mph   87% 0.00 in WeatherDisplay:10.37 W/m2 SCT
08:34 51.4 °F 47.7 °F 30.17 in West 1.2 mph   87% 0.00 in WeatherDisplay:10.37 W/m2 SCT
08:39 52.0 °F 47.9 °F 30.17 in West 1.2 mph   86% 0.00 in WeatherDisplay:10.37 W/m2 SCT
08:49 53.1 °F 48.1 °F 30.17 in WSW 1.2 mph 1.2 mph 83% 0.00 in WeatherDisplay:10.37 W/m2 SCT
08:55 53.6 °F 48.6 °F 30.17 in WSW 1.2 mph   83% 0.00 in WeatherDisplay:10.37 W/m2 SCT
09:00 54.1 °F 48.4 °F 30.17 in SW 2.3 mph   81% 0.00 in WeatherDisplay:10.37 W/m2 SCT
09:05 54.4 °F 48.7 °F 30.17 in Calm   1.0 mph 81% 0.00 in WeatherDisplay:10.37 W/m2 SCT
09:10 54.7 °F 48.6 °F 30.17 in SW 3.5 mph 3.5 mph 80% 0.00 in WeatherDisplay:10.37 W/m2 SCT
09:15 55.0 °F 48.9 °F 30.17 in SW 3.5 mph 3.5 mph 80% 0.00 in WeatherDisplay:10.37 W/m2 SCT
09:20 55.2 °F 49.1 °F 30.17 in SW 3.5 mph   80% 0.00 in WeatherDisplay:10.37 W/m2 SCT
09:25 55.9 °F 50.2 °F 30.17 in NE 3.5 mph   81% 0.00 in WeatherDisplay:10.37 W/m2 SCT
09:30 56.3 °F 49.5 °F 30.17 in NW 2.3 mph 2.3 mph 78% 0.00 in WeatherDisplay:10.37 W/m2 SCT
09:35 56.5 °F 49.4 °F 30.17 in WSW 3.5 mph 3.5 mph 77% 0.00 in WeatherDisplay:10.37 W/m2 SCT
09:40 56.7 °F 49.6 °F 30.18 in SSW 3.5 mph 3.5 mph 77% 0.00 in WeatherDisplay:10.37 W/m2 SCT
09:45 57.1 °F 49.6 °F 30.18 in SE 3.5 mph 3.5 mph 76% 0.00 in WeatherDisplay:10.37 W/m2 SCT
09:51 57.4 °F 49.5 °F 30.18 in East 3.5 mph 3.5 mph 75% 0.00 in WeatherDisplay:10.37 W/m2 SCT
09:56 57.6 °F 49.7 °F 30.18 in West 3.5 mph 3.5 mph 75% 0.00 in WeatherDisplay:10.37 W/m2 SCT
10:01 57.8 °F 49.9 °F 30.18 in SW 5.8 mph 5.8 mph 75% 0.00 in WeatherDisplay:10.37 W/m2 SCT
10:06 58.0 °F 49.4 °F 30.18 in WNW 5.8 mph 5.8 mph 73% 0.00 in WeatherDisplay:10.37 W/m2 BKN
10:11 58.1 °F 49.5 °F 30.18 in WSW 4.6 mph 4.6 mph 73% 0.00 in WeatherDisplay:10.37 W/m2 BKN
10:16 58.7 °F 50.1 °F 30.18 in WSW 4.6 mph 4.6 mph 73% 0.00 in WeatherDisplay:10.37 W/m2 BKN
10:21 59.2 °F 49.8 °F 30.18 in West 4.6 mph 4.6 mph 71% 0.00 in WeatherDisplay:10.37 W/m2 BKN
10:26 59.1 °F 49.3 °F 30.18 in SSW 4.6 mph 4.6 mph 70% 0.00 in WeatherDisplay:10.37 W/m2 BKN
10:31 59.2 °F 49.8 °F 30.18 in WSW 4.6 mph 4.6 mph 71% 0.00 in WeatherDisplay:10.37 W/m2 BKN
10:36 59.1 °F 49.3 °F 30.18 in WSW 5.8 mph 5.8 mph 70% 0.00 in WeatherDisplay:10.37 W/m2 BKN
10:41 58.7 °F 48.9 °F 30.18 in WSW 5.8 mph 5.8 mph 70% 0.00 in WeatherDisplay:10.37 W/m2 BKN
10:51 58.8 °F 49.0 °F 30.18 in WSW 3.5 mph 3.5 mph 70% 0.00 in WeatherDisplay:10.37 W/m2 BKN
10:57 59.1 °F 48.9 °F 30.18 in SW 3.5 mph 3.5 mph 69% 0.00 in WeatherDisplay:10.37 W/m2 BKN
11:02 59.5 °F 49.7 °F 30.18 in WSW 2.3 mph 2.3 mph 70% 0.00 in WeatherDisplay:10.37 W/m2 BKN
11:07 59.9 °F 49.3 °F 30.18 in WNW 2.3 mph   68% 0.00 in WeatherDisplay:10.37 W/m2 BKN
11:12 60.4 °F 49.4 °F 30.18 in WNW 3.5 mph 3.5 mph 67% 0.00 in WeatherDisplay:10.37 W/m2 BKN
11:17 60.3 °F 48.1 °F 30.17 in South 4.6 mph 4.6 mph 64% 0.00 in WeatherDisplay:10.37 W/m2 BKN
11:22 60.1 °F 48.3 °F 30.17 in WSW 4.6 mph 4.6 mph 65% 0.00 in WeatherDisplay:10.37 W/m2 BKN
11:27 59.9 °F 48.5 °F 30.17 in West 4.6 mph 4.6 mph 66% 0.00 in WeatherDisplay:10.37 W/m2 BKN
11:32 60.1 °F 49.1 °F 30.17 in WSW 2.3 mph 2.3 mph 67% 0.00 in WeatherDisplay:10.37 W/m2 BKN
11:37 60.3 °F 48.5 °F 30.17 in WNW 2.3 mph 2.3 mph 65% 0.00 in WeatherDisplay:10.37 W/m2 BKN
11:42 60.3 °F 48.9 °F 30.17 in WNW 2.3 mph 2.3 mph 66% 0.00 in WeatherDisplay:10.37 W/m2 BKN
11:47 60.4 °F 49.0 °F 30.17 in SSE 4.6 mph 4.6 mph 66% 0.00 in WeatherDisplay:10.37 W/m2 BKN
11:52 60.5 °F 49.1 °F 30.16 in ENE 4.6 mph 4.6 mph 66% 0.00 in WeatherDisplay:10.37 W/m2 BKN
11:58 60.8 °F 48.5 °F 30.16 in WNW 4.6 mph 4.6 mph 64% 0.00 in WeatherDisplay:10.37 W/m2 BKN
12:03 60.9 °F 48.2 °F 30.15 in South 3.5 mph 3.5 mph 63% 0.00 in WeatherDisplay:10.37 W/m2 BKN
12:08 61.0 °F 48.3 °F 30.15 in ESE 4.6 mph   63% 0.00 in WeatherDisplay:10.37 W/m2 BKN
12:13 61.3 °F 48.6 °F 30.15 in SSW 4.6 mph 4.6 mph 63% 0.00 in WeatherDisplay:10.37 W/m2 BKN
12:18 61.4 °F 48.7 °F 30.15 in West 2.3 mph 2.3 mph 63% 0.00 in WeatherDisplay:10.37 W/m2 BKN
12:28 61.5 °F 47.9 °F 30.14 in SSE 3.5 mph 3.5 mph 61% 0.00 in WeatherDisplay:10.37 W/m2 BKN
12:33 61.7 °F 47.7 °F 30.14 in SW 4.6 mph 4.6 mph 60% 0.00 in WeatherDisplay:10.37 W/m2 BKN
12:38 61.9 °F 47.4 °F 30.13 in WSW 4.6 mph 4.6 mph 59% 0.00 in WeatherDisplay:10.37 W/m2 BKN
12:43 62.0 °F 47.0 °F 30.13 in WNW 4.6 mph 4.6 mph 58% 0.00 in WeatherDisplay:10.37 W/m2 BKN
12:48 62.2 °F 47.2 °F 30.13 in NNW 5.8 mph 5.8 mph 58% 0.00 in WeatherDisplay:10.37 W/m2 BKN
12:53 62.3 °F 47.3 °F 30.13 in NW 5.8 mph 5.8 mph 58% 0.00 in WeatherDisplay:10.37 W/m2 BKN
12:58 62.5 °F 46.6 °F 30.13 in SW 4.6 mph 4.6 mph 56% 0.00 in WeatherDisplay:10.37 W/m2 BKN
13:01 62.6 °F 47.1 °F 30.12 in WSW 4.6 mph 4.6 mph 57% 0.00 in WeatherDisplay:10.37 W/m2 BKN
13:06 62.9 °F 46.5 °F 30.12 in SE 4.6 mph 4.6 mph 55% 0.00 in WeatherDisplay:10.37 W/m2 BKN
13:11 63.2 °F 47.2 °F 30.12 in West 4.6 mph 4.6 mph 56% 0.00 in WeatherDisplay:10.37 W/m2 BKN
13:16 63.4 °F 45.5 °F 30.12 in West 4.6 mph 4.6 mph 52% 0.00 in WeatherDisplay:10.37 W/m2 BKN
13:21 63.8 °F 44.3 °F 30.12 in SSW 4.6 mph 4.6 mph 49% 0.00 in WeatherDisplay:10.37 W/m2 BKN
13:25 63.9 °F 43.8 °F 30.12 in SW 4.6 mph 4.6 mph 48% 0.00 in WeatherDisplay:10.37 W/m2 BKN
13:30 64.1 °F 45.6 °F 30.12 in WNW 4.6 mph 4.6 mph 51% 0.00 in WeatherDisplay:10.37 W/m2 BKN
13:35 63.7 °F 45.2 °F 30.12 in WSW 4.6 mph 4.6 mph 51% 0.00 in WeatherDisplay:10.37 W/m2 BKN
13:40 63.9 °F 45.4 °F 30.12 in SE 4.6 mph   51% 0.00 in WeatherDisplay:10.37 W/m2 BKN
13:45 64.3 °F 44.7 °F 30.12 in WNW 4.6 mph 4.6 mph 49% 0.00 in WeatherDisplay:10.37 W/m2 BKN
13:50 64.1 °F 44.5 °F 30.12 in SSW 3.5 mph 3.5 mph 49% 0.00 in WeatherDisplay:10.37 W/m2 BKN
13:55 64.1 °F 44.0 °F 30.12 in SE 4.6 mph 4.6 mph 48% 0.00 in WeatherDisplay:10.37 W/m2 BKN
14:00 64.4 °F 43.7 °F 30.12 in NE 4.6 mph 4.6 mph 47% 0.00 in WeatherDisplay:10.37 W/m2 BKN
14:05 64.1 °F 42.9 °F 30.12 in SSE 4.6 mph 4.6 mph 46% 0.00 in WeatherDisplay:10.37 W/m2 BKN
14:10 63.8 °F 43.7 °F 30.11 in WSW 4.6 mph   48% 0.00 in WeatherDisplay:10.37 W/m2 BKN
14:16 63.8 °F 43.7 °F 30.12 in West 4.6 mph 4.6 mph 48% 0.00 in WeatherDisplay:10.37 W/m2 BKN
14:21 63.5 °F 41.8 °F 30.11 in NW 4.6 mph 4.6 mph 45% 0.00 in WeatherDisplay:10.37 W/m2 BKN
14:26 63.5 °F 40.6 °F 30.12 in NW 4.6 mph 4.6 mph 43% 0.00 in WeatherDisplay:10.37 W/m2 BKN
14:31 63.4 °F 41.7 °F 30.11 in South 3.5 mph   45% 0.00 in WeatherDisplay:10.37 W/m2 BKN
14:36 63.5 °F 41.2 °F 30.11 in South 3.5 mph 3.5 mph 44% 0.00 in WeatherDisplay:10.37 W/m2 BKN
14:41 63.4 °F 41.7 °F 30.11 in South 2.3 mph 2.3 mph 45% 0.00 in WeatherDisplay:10.37 W/m2 BKN
14:46 63.1 °F 41.4 °F 30.11 in ESE 4.6 mph 4.6 mph 45% 0.00 in WeatherDisplay:10.37 W/m2 BKN
14:51 62.9 °F 41.8 °F 30.11 in South 4.6 mph   46% 0.00 in WeatherDisplay:10.37 W/m2 BKN
14:56 62.9 °F 42.4 °F 30.11 in WSW 4.6 mph   47% 0.00 in WeatherDisplay:10.37 W/m2 BKN
15:01 63.0 °F 42.4 °F 30.11 in West 2.3 mph 2.3 mph 47% 0.00 in WeatherDisplay:10.37 W/m2 BKN
15:06 63.0 °F 43.0 °F 30.11 in West 3.5 mph   48% 0.00 in WeatherDisplay:10.37 W/m2 BKN
15:11 63.0 °F 43.0 °F 30.11 in West 3.5 mph   48% 0.00 in WeatherDisplay:10.37 W/m2 BKN
15:16 62.9 °F 44.5 °F 30.11 in WSW 2.3 mph 2.3 mph 51% 0.00 in WeatherDisplay:10.37 W/m2 BKN
15:17 62.9 °F 43.4 °F 30.11 in WSW 2.3 mph   49% 0.00 in WeatherDisplay:10.37 W/m2 BKN
15:23 62.7 °F 42.2 °F 30.11 in West 3.5 mph 3.5 mph 47% 0.00 in WeatherDisplay:10.37 W/m2 BKN
15:28 62.8 °F 42.8 °F 30.11 in SW 4.6 mph 4.6 mph 48% 0.00 in WeatherDisplay:10.37 W/m2 BKN
15:33 62.7 °F 42.2 °F 30.11 in WSW 4.6 mph 4.6 mph 47% 0.00 in WeatherDisplay:10.37 W/m2 BKN
15:38 62.6 °F 43.2 °F 30.11 in West 4.6 mph 4.6 mph 49% 0.00 in WeatherDisplay:10.37 W/m2 BKN
15:43 62.5 °F 44.1 °F 30.11 in West 4.6 mph 4.6 mph 51% 0.00 in WeatherDisplay:10.37 W/m2 BKN
15:48 62.3 °F 42.9 °F 30.11 in West 4.6 mph 4.6 mph 49% 0.00 in WeatherDisplay:10.37 W/m2 BKN
15:53 62.3 °F 41.2 °F 30.11 in SSW 4.6 mph 4.6 mph 46% 0.00 in WeatherDisplay:10.37 W/m2 BKN
15:58 62.4 °F 37.7 °F 30.11 in ESE 4.6 mph 4.6 mph 40% 0.00 in WeatherDisplay:10.37 W/m2 BKN
16:03 62.3 °F 37.7 °F 30.11 in East 4.6 mph 4.6 mph 40% 0.00 in WeatherDisplay:10.37 W/m2 SCT
16:08 62.2 °F 38.2 °F 30.11 in SSE 2.3 mph   41% 0.00 in WeatherDisplay:10.37 W/m2 SCT
16:13 62.0 °F 38.0 °F 30.11 in SSE 2.3 mph 2.3 mph 41% 0.00 in WeatherDisplay:10.37 W/m2 SCT
16:18 61.8 °F 39.1 °F 30.11 in ESE 2.3 mph   43% 0.00 in WeatherDisplay:10.37 W/m2 SCT
16:24 61.3 °F 39.2 °F 30.11 in ESE 2.3 mph 2.3 mph 44% 0.00 in WeatherDisplay:10.37 W/m2 SCT
16:25 61.3 °F 39.8 °F 30.11 in ESE 2.3 mph   45% 0.00 in WeatherDisplay:10.37 W/m2 SCT
16:30 60.9 °F 40.0 °F 30.11 in ESE 2.3 mph 2.3 mph 46% 0.00 in WeatherDisplay:10.37 W/m2 SCT
16:35 60.8 °F 39.9 °F 30.11 in Calm   3.0 mph 46% 0.00 in WeatherDisplay:10.37 W/m2 SCT
16:40 60.7 °F 39.8 °F 30.11 in Calm   1.0 mph 46% 0.00 in WeatherDisplay:10.37 W/m2 SCT
16:45 60.5 °F 39.6 °F 30.11 in West 1.2 mph   46% 0.00 in WeatherDisplay:10.37 W/m2 SCT
16:50 60.2 °F 38.8 °F 30.11 in WNW 4.6 mph 4.6 mph 45% 0.00 in WeatherDisplay:10.37 W/m2 SCT
16:55 60.1 °F 39.2 °F 30.12 in WNW 4.6 mph 4.6 mph 46% 0.00 in WeatherDisplay:10.37 W/m2 SCT
17:00 59.8 °F 39.5 °F 30.12 in WNW 4.6 mph   47% 0.00 in WeatherDisplay:10.37 W/m2 SCT
17:05 59.5 °F 40.3 °F 30.12 in WNW 1.2 mph   49% 0.00 in WeatherDisplay:10.37 W/m2 SCT
17:10 59.1 °F 39.4 °F 30.12 in West 2.3 mph   48% 0.00 in WeatherDisplay:10.37 W/m2 SCT
17:15 58.9 °F 40.3 °F 30.12 in South 2.3 mph   50% 0.00 in WeatherDisplay:10.37 W/m2 SCT
17:20 58.4 °F 40.8 °F 30.12 in Calm     52% 0.00 in WeatherDisplay:10.37 W/m2 SCT
17:26 58.2 °F 41.1 °F 30.13 in SSW 2.3 mph   53% 0.00 in WeatherDisplay:10.37 W/m2 SCT
17:31 57.9 °F 40.9 °F 30.13 in WSW 2.3 mph 2.3 mph 53% 0.00 in WeatherDisplay:10.37 W/m2 SCT
17:36 57.6 °F 41.1 °F 30.13 in SSE 1.2 mph   54% 0.00 in WeatherDisplay:10.37 W/m2 SCT
17:41 57.4 °F 41.4 °F 30.13 in SSE 1.2 mph 1.2 mph 55% 0.00 in WeatherDisplay:10.37 W/m2 SCT
17:46 57.1 °F 41.1 °F 30.13 in West 1.2 mph   55% 0.00 in WeatherDisplay:10.37 W/m2 SCT
17:51 56.8 °F 41.3 °F 30.13 in West 1.2 mph   56% 0.00 in WeatherDisplay:10.37 W/m2 SCT
17:56 56.3 °F 40.8 °F 30.13 in Calm     56% 0.00 in WeatherDisplay:10.37 W/m2 SCT
18:01 56.0 °F 38.1 °F 30.13 in West 2.3 mph 2.3 mph 51% 0.00 in WeatherDisplay:10.37 W/m2 BKN
18:06 56.1 °F 37.7 °F 30.13 in WNW 2.3 mph   50% 0.00 in WeatherDisplay:10.37 W/m2 BKN
18:11 55.9 °F 38.0 °F 30.13 in WNW 2.3 mph   51% 0.00 in WeatherDisplay:10.37 W/m2 BKN
18:16 55.4 °F 38.5 °F 30.13 in WNW 1.2 mph   53% 0.00 in WeatherDisplay:10.37 W/m2 BKN
18:21 54.9 °F 37.1 °F 30.13 in WNW 1.2 mph   51% 0.00 in WeatherDisplay:10.37 W/m2 BKN
18:26 54.6 °F 38.3 °F 30.13 in WNW 1.2 mph   54% 0.00 in WeatherDisplay:10.37 W/m2 BKN
18:32 54.3 °F 38.0 °F 30.13 in Calm     54% 0.00 in WeatherDisplay:10.37 W/m2 BKN
18:37 54.0 °F 38.6 °F 30.13 in Calm     56% 0.00 in WeatherDisplay:10.37 W/m2 BKN
18:42 53.6 °F 37.8 °F 30.14 in Calm     55% 0.00 in WeatherDisplay:10.37 W/m2 BKN
18:47 53.3 °F 38.4 °F 30.14 in West 1.2 mph   57% 0.00 in WeatherDisplay:10.37 W/m2 BKN
18:52 52.9 °F 37.6 °F 30.14 in West 1.2 mph   56% 0.00 in WeatherDisplay:10.37 W/m2 BKN
18:57 52.6 °F 38.2 °F 30.14 in West 1.2 mph 1.2 mph 58% 0.00 in WeatherDisplay:10.37 W/m2 BKN
19:02 52.5 °F 37.2 °F 30.14 in SW 1.2 mph   56% 0.00 in WeatherDisplay:10.37 W/m2 SCT
19:07 52.7 °F 37.4 °F 30.14 in SSW 2.3 mph   56% 0.00 in WeatherDisplay:10.37 W/m2 SCT
19:12 52.5 °F 37.7 °F 30.14 in West 2.3 mph 2.3 mph 57% 0.00 in WeatherDisplay:10.37 W/m2 SCT
19:17 52.6 °F 37.3 °F 30.14 in WNW 1.2 mph   56% 0.00 in WeatherDisplay:10.37 W/m2 SCT
19:22 52.5 °F 37.7 °F 30.14 in West 1.2 mph   57% 0.00 in WeatherDisplay:10.37 W/m2 SCT
19:27 52.3 °F 37.1 °F 30.14 in Calm     56% 0.00 in WeatherDisplay:10.37 W/m2 SCT
19:32 52.1 °F 37.8 °F 30.14 in Calm     58% 0.00 in WeatherDisplay:10.37 W/m2 SCT
19:37 51.8 °F 37.0 °F 30.14 in Calm     57% 0.00 in WeatherDisplay:10.37 W/m2 SCT
19:42 51.6 °F 37.3 °F 30.14 in Calm     58% 0.00 in WeatherDisplay:10.37 W/m2 SCT
19:48 51.3 °F 37.9 °F 30.14 in Calm     60% 0.00 in WeatherDisplay:10.37 W/m2 SCT
19:53 51.0 °F 37.6 °F 30.14 in Calm     60% 0.00 in WeatherDisplay:10.37 W/m2 SCT
19:58 50.8 °F 37.8 °F 30.14 in Calm     61% 0.00 in WeatherDisplay:10.37 W/m2 SCT
20:08 50.5 °F 37.5 °F 30.15 in WNW 1.2 mph   61% 0.00 in WeatherDisplay:10.37 W/m2 SCT
20:13 50.3 °F 37.8 °F 30.15 in WNW 1.2 mph   62% 0.00 in WeatherDisplay:10.37 W/m2 SCT
20:18 50.1 °F 37.6 °F 30.15 in Calm     62% 0.00 in WeatherDisplay:10.37 W/m2 SCT
20:23 49.9 °F 37.8 °F 30.15 in Calm     63% 0.00 in WeatherDisplay:10.37 W/m2 SCT
20:28 49.7 °F 38.0 °F 30.15 in Calm     64% 0.00 in WeatherDisplay:10.37 W/m2 SCT
20:33 49.5 °F 37.8 °F 30.15 in Calm     64% 0.00 in WeatherDisplay:10.37 W/m2 SCT
20:38 49.2 °F 37.5 °F 30.15 in Calm     64% 0.00 in WeatherDisplay:10.37 W/m2 SCT
20:43 49.0 °F 37.7 °F 30.15 in Calm     65% 0.00 in WeatherDisplay:10.37 W/m2 SCT
20:48 48.8 °F 37.9 °F 30.15 in Calm     66% 0.00 in WeatherDisplay:10.37 W/m2 SCT
20:53 48.8 °F 37.9 °F 30.15 in Calm     66% 0.00 in WeatherDisplay:10.37 W/m2 SCT
20:58 48.7 °F 37.8 °F 30.15 in Calm     66% 0.00 in WeatherDisplay:10.37 W/m2 SCT
21:04 48.6 °F 37.7 °F 30.15 in WNW 1.2 mph   66% 0.00 in WeatherDisplay:10.37 W/m2 FEW
21:09 48.7 °F 38.2 °F 30.15 in WNW 1.2 mph   67% 0.00 in WeatherDisplay:10.37 W/m2 FEW
21:14 48.6 °F 37.7 °F 30.15 in Calm     66% 0.00 in WeatherDisplay:10.37 W/m2 FEW
21:19 48.7 °F 37.8 °F 30.15 in Calm     66% 0.00 in WeatherDisplay:10.37 W/m2 FEW
21:24 48.7 °F 37.8 °F 30.16 in Calm     66% 0.00 in WeatherDisplay:10.37 W/m2 FEW
21:29 48.6 °F 37.7 °F 30.16 in Calm     66% 0.00 in WeatherDisplay:10.37 W/m2 FEW
21:34 48.4 °F 37.6 °F 30.16 in Calm     66% 0.00 in WeatherDisplay:10.37 W/m2 FEW
21:39 48.3 °F 38.2 °F 30.16 in Calm     68% 0.00 in WeatherDisplay:10.37 W/m2 FEW
21:44 48.2 °F 38.1 °F 30.16 in Calm     68% 0.00 in WeatherDisplay:10.37 W/m2 FEW
21:49 48.1 °F 38.0 °F 30.16 in Calm     68% 0.00 in WeatherDisplay:10.37 W/m2 FEW
21:54 48.0 °F 37.9 °F 30.16 in Calm     68% 0.00 in WeatherDisplay:10.37 W/m2 FEW
21:59 48.0 °F 37.9 °F 30.16 in Calm     68% 0.00 in WeatherDisplay:10.37 W/m2 FEW
22:04 47.9 °F 37.8 °F 30.16 in Calm     68% 0.00 in WeatherDisplay:10.37 W/m2 FEW
22:10 47.8 °F 37.7 °F 30.16 in Calm     68% 0.00 in WeatherDisplay:10.37 W/m2 FEW
22:16 47.6 °F 38.3 °F 30.16 in Calm     70% 0.00 in WeatherDisplay:10.37 W/m2 FEW
22:21 47.4 °F 38.1 °F 30.16 in Calm     70% 0.00 in WeatherDisplay:10.37 W/m2 FEW
22:23 47.2 °F 37.9 °F 30.16 in Calm     70% 0.00 in WeatherDisplay:10.37 W/m2 FEW
22:26 47.1 °F 37.8 °F 30.16 in Calm     70% 0.00 in WeatherDisplay:10.37 W/m2 FEW
22:28 47.1 °F 37.8 °F 30.16 in Calm     70% 0.00 in WeatherDisplay:10.37 W/m2 FEW
22:31 46.9 °F 38.0 °F 30.16 in Calm     71% 0.00 in WeatherDisplay:10.37 W/m2 FEW
22:37 46.8 °F 37.9 °F 30.16 in Calm     71% 0.00 in WeatherDisplay:10.37 W/m2 FEW
22:42 46.9 °F 38.0 °F 30.16 in North 1.2 mph   71% 0.00 in WeatherDisplay:10.37 W/m2 FEW
22:43 46.9 °F 38.0 °F 30.16 in North 1.2 mph   71% 0.00 in WeatherDisplay:10.37 W/m2 FEW
22:48 46.9 °F 38.0 °F 30.16 in North 1.2 mph   71% 0.00 in WeatherDisplay:10.37 W/m2 FEW
22:53 46.9 °F 38.0 °F 30.16 in Calm     71% 0.00 in WeatherDisplay:10.37 W/m2 FEW
22:58 46.9 °F 38.3 °F 30.15 in Calm     72% 0.00 in WeatherDisplay:10.37 W/m2 FEW
23:03 46.8 °F 38.2 °F 30.15 in Calm     72% 0.00 in WeatherDisplay:10.37 W/m2 CLR
23:08 46.7 °F 38.1 °F 30.15 in Calm     72% 0.00 in WeatherDisplay:10.37 W/m2 CLR
23:14 46.6 °F 37.7 °F 30.16 in Calm     71% 0.00 in WeatherDisplay:10.37 W/m2 CLR
23:19 46.4 °F 37.9 °F 30.16 in Calm     72% 0.00 in WeatherDisplay:10.37 W/m2 CLR
23:24 46.3 °F 38.1 °F 30.15 in Calm     73% 0.00 in WeatherDisplay:10.37 W/m2 CLR
23:29 46.4 °F 38.2 °F 30.16 in Calm     73% 0.00 in WeatherDisplay:10.37 W/m2 CLR
23:34 46.3 °F 38.1 °F 30.15 in NNE 1.2 mph   73% 0.00 in WeatherDisplay:10.37 W/m2 CLR
23:39 46.1 °F 37.9 °F 30.15 in NNE 1.2 mph   73% 0.00 in WeatherDisplay:10.37 W/m2 CLR
23:40 46.1 °F 37.9 °F 30.15 in Calm     73% 0.00 in WeatherDisplay:10.37 W/m2 CLR
23:45 45.9 °F 37.7 °F 30.15 in Calm     73% 0.00 in WeatherDisplay:10.37 W/m2 CLR
23:50 45.7 °F 37.9 °F 30.15 in Calm     74% 0.00 in WeatherDisplay:10.37 W/m2 CLR
23:55 45.6 °F 38.1 °F 30.15 in NNE 1.2 mph   75% 0.00 in WeatherDisplay:10.37 W/m2 CLR
Piedmont Bend
Compliments of Weather Underground - 4 mb